Location: �terpigny
(49.8910°N, 2.9249°E)
Time: 12:18:24
(UTC+00:00)

Cosmos 1190 Rocket - Pass Details

Date: 24 October 2021
Orbit: 756 x 780 km, 74.1° (Epoch: 05 December)

Event Time Altitude Azimuth Distance (km) Brightness Sun altitude
Rises 18:54:05 0° 337° (NNW) 3,227 7.7 -22.3°
Reaches altitude 10° 18:56:29 10° 341° (NNW) 2,299 6.8 -22.7°
Maximum altitude 19:01:40 66° 63° (ENE) 833 3.9 -23.5°
Enters shadow 19:02:04 63° 90° (E) 849 3.9 -23.6°
